SKK10 DXXX-DIAP

Flight info

Callsign SKK10
Flight time 0h 54m
Altitude 34000
Route KETAT2S KETAT UL433 ACC UB600 ONESI DCT TAVAL TAVAL1S
Aircraft B738/M-SDE2E3FGHIRWXY/LB1

Departure

Time 2026-05-07 18:20
Airport Lomé–Tokoin International Airport (DXXX)

Arrival

Time 2026-05-07 19:14
Airport Félix-Houphouët-Boigny International Airport (DIAP)
Time Latitude Longitude Altitude Speed Heading
2026-05-07 17:42 6.16972 1.25388 74 ft 0 kts 311°
2026-05-07 18:09 6.16962 1.25399 66 ft 4 kts 311°
2026-05-07 18:09 6.16943 1.25419 69 ft 4 kts 314°
2026-05-07 18:09 6.16924 1.25438 68 ft 4 kts 320°
2026-05-07 18:10 6.16902 1.25452 70 ft 4 kts 347°
2026-05-07 18:10 6.16886 1.25451 63 ft 0 kts 38°
2026-05-07 18:14 6.16892 1.25456 63 ft 8 kts 38°
2026-05-07 18:14 6.16948 1.25500 74 ft 12 kts 39°
2026-05-07 18:15 6.17021 1.25559 74 ft 15 kts 39°
2026-05-07 18:15 6.17112 1.25633 64 ft 18 kts 39°
2026-05-07 18:15 6.17201 1.25709 72 ft 17 kts 40°
2026-05-07 18:15 6.17300 1.25789 68 ft 20 kts 38°
2026-05-07 18:16 6.17415 1.25882 69 ft 22 kts 39°
2026-05-07 18:16 6.17543 1.25985 68 ft 25 kts 39°
2026-05-07 18:16 6.17660 1.26080 70 ft 15 kts 39°
2026-05-07 18:16 6.17707 1.26137 71 ft 6 kts 89°
2026-05-07 18:17 6.17687 1.26175 66 ft 0 kts 129°
2026-05-07 18:17 6.17683 1.26180 68 ft 2 kts 129°
2026-05-07 18:17 6.17666 1.26201 74 ft 6 kts 129°
2026-05-07 18:17 6.17635 1.26236 74 ft 8 kts 144°
2026-05-07 18:18 6.17598 1.26232 74 ft 1 kts 211°
2026-05-07 18:18 6.17583 1.26222 67 ft 4 kts 213°
2026-05-07 18:18 6.17578 1.26219 69 ft 2 kts 213°
2026-05-07 18:19 6.17573 1.26215 74 ft 3 kts 217°
2026-05-07 18:19 6.17444 1.26110 72 ft 63 kts 219°
2026-05-07 18:19 6.16868 1.25647 70 ft 145 kts 218°
2026-05-07 18:19 6.15945 1.24921 555 ft 179 kts 218°
2026-05-07 18:20 6.14941 1.24118 1527 ft 190 kts 218°
2026-05-07 18:20 6.13914 1.23331 2641 ft 187 kts 214°
2026-05-07 18:20 6.12728 1.22567 2987 ft 216 kts 203°
2026-05-07 18:20 6.11231 1.22070 3339 ft 235 kts 199°
2026-05-07 18:21 6.09668 1.21445 3798 ft 252 kts 204°
2026-05-07 18:21 6.08217 1.20399 4436 ft 266 kts 231°
2026-05-07 18:21 6.07466 1.18674 5169 ft 278 kts 261°
2026-05-07 18:21 6.07341 1.16710 5918 ft 288 kts 268°
2026-05-07 18:22 6.07301 1.14712 6730 ft 291 kts 269°
2026-05-07 18:22 6.07290 1.14022 7018 ft 293 kts 269°
2026-05-07 18:22 6.07210 1.10543 8204 ft 307 kts 268°
2026-05-07 18:22 6.07138 1.08375 8936 ft 315 kts 268°
2026-05-07 18:23 6.07054 1.06150 9678 ft 322 kts 268°
2026-05-07 18:23 6.06961 1.03869 10252 ft 334 kts 267°
2026-05-07 18:23 6.06861 1.01450 10533 ft 356 kts 267°
2026-05-07 18:23 6.06520 0.98966 11106 ft 363 kts 250°
2026-05-07 18:24 6.05636 0.96588 11864 ft 364 kts 246°
2026-05-07 18:24 6.04701 0.94211 12611 ft 368 kts 246°
2026-05-07 18:24 6.03758 0.91800 13297 ft 373 kts 246°
2026-05-07 18:24 6.02821 0.89364 13970 ft 377 kts 246°
2026-05-07 18:25 6.01885 0.86895 14684 ft 378 kts 247°
2026-05-07 18:25 6.00957 0.84424 15428 ft 378 kts 247°
2026-05-07 18:25 6.00028 0.81946 16116 ft 380 kts 248°
2026-05-07 18:25 5.99108 0.79492 16789 ft 382 kts 248°
2026-05-07 18:26 5.98170 0.76992 17472 ft 383 kts 248°
2026-05-07 18:26 5.97228 0.74483 18144 ft 385 kts 248°
2026-05-07 18:26 5.96280 0.71956 18696 ft 387 kts 248°
2026-05-07 18:26 5.95638 0.70244 19046 ft 389 kts 248°
2026-05-07 18:27 5.94365 0.66853 19742 ft 393 kts 248°
2026-05-07 18:27 5.93725 0.65147 20084 ft 395 kts 248°
2026-05-07 18:27 5.92749 0.62546 20608 ft 398 kts 248°
2026-05-07 18:27 5.91769 0.59933 21114 ft 401 kts 248°
2026-05-07 18:28 5.90782 0.57304 21613 ft 404 kts 248°
2026-05-07 18:28 5.89787 0.54654 22106 ft 407 kts 248°
2026-05-07 18:28 5.88785 0.51984 22583 ft 410 kts 248°
2026-05-07 18:28 5.87775 0.49294 23051 ft 413 kts 248°
2026-05-07 18:29 5.86758 0.46587 23500 ft 416 kts 248°
2026-05-07 18:29 5.85736 0.43866 23870 ft 418 kts 248°
2026-05-07 18:29 5.84705 0.41121 24250 ft 421 kts 248°
2026-05-07 18:29 5.83669 0.38365 24635 ft 423 kts 248°
2026-05-07 18:30 5.82628 0.35593 25020 ft 425 kts 248°
2026-05-07 18:30 5.81580 0.32805 25385 ft 428 kts 248°
2026-05-07 18:30 5.80528 0.30005 25749 ft 430 kts 249°
2026-05-07 18:30 5.79481 0.27222 26109 ft 433 kts 248°
2026-05-07 18:31 5.78414 0.24383 26476 ft 435 kts 249°
2026-05-07 18:31 5.77341 0.21531 26839 ft 437 kts 249°
2026-05-07 18:31 5.76264 0.18667 27191 ft 440 kts 249°
2026-05-07 18:31 5.75179 0.15784 27545 ft 442 kts 249°
2026-05-07 18:32 5.74091 0.12891 27885 ft 444 kts 249°
2026-05-07 18:32 5.72996 0.09982 28226 ft 446 kts 249°
2026-05-07 18:32 5.71894 0.07056 28558 ft 449 kts 249°
2026-05-07 18:32 5.70788 0.04118 28886 ft 451 kts 249°
2026-05-07 18:33 5.69678 0.01168 29208 ft 453 kts 249°
2026-05-07 18:33 5.68560 -0.01800 29523 ft 455 kts 249°
2026-05-07 18:33 5.67437 -0.04782 29835 ft 457 kts 249°
2026-05-07 18:33 5.66311 -0.07772 30170 ft 457 kts 249°
2026-05-07 18:34 5.65189 -0.10751 30634 ft 453 kts 249°
2026-05-07 18:34 5.64097 -0.13666 31064 ft 451 kts 250°
2026-05-07 18:34 5.63250 -0.16697 31416 ft 451 kts 259°
2026-05-07 18:34 5.62853 -0.19818 31765 ft 451 kts 264°
2026-05-07 18:35 5.62573 -0.22952 32170 ft 449 kts 265°
2026-05-07 18:35 5.62318 -0.26063 32593 ft 447 kts 265°
2026-05-07 18:35 5.62062 -0.29163 33068 ft 443 kts 265°
2026-05-07 18:35 5.61798 -0.32236 33514 ft 441 kts 265°
2026-05-07 18:36 5.61524 -0.35296 33857 ft 439 kts 265°
2026-05-07 18:36 5.60952 -0.41444 33866 ft 443 kts 264°
2026-05-07 18:37 5.60370 -0.47570 33872 ft 439 kts 264°
2026-05-07 18:37 5.59791 -0.53662 33881 ft 437 kts 264°
2026-05-07 18:38 5.59214 -0.59728 33882 ft 436 kts 264°
2026-05-07 18:38 5.58641 -0.65753 33883 ft 437 kts 264°
2026-05-07 18:39 5.58062 -0.71833 33883 ft 438 kts 264°
2026-05-07 18:39 5.57481 -0.77940 33887 ft 440 kts 264°
2026-05-07 18:40 5.56897 -0.84073 33885 ft 442 kts 265°
2026-05-07 18:40 5.56308 -0.90237 33890 ft 444 kts 264°
2026-05-07 18:41 5.55717 -0.96422 33889 ft 446 kts 264°
2026-05-07 18:41 5.55128 -1.02584 33887 ft 447 kts 264°
2026-05-07 18:42 5.54533 -1.08792 33886 ft 447 kts 264°
2026-05-07 18:42 5.53938 -1.15000 33887 ft 446 kts 265°
2026-05-07 18:43 5.53353 -1.21197 33882 ft 445 kts 265°
2026-05-07 18:43 5.52775 -1.27378 33883 ft 444 kts 265°
2026-05-07 18:44 5.52198 -1.33544 33882 ft 443 kts 265°
2026-05-07 18:44 5.51621 -1.39696 33881 ft 442 kts 265°
2026-05-07 18:45 5.51043 -1.45842 33878 ft 441 kts 265°
2026-05-07 18:45 5.50469 -1.51945 33875 ft 441 kts 265°
2026-05-07 18:46 5.49888 -1.58103 33872 ft 438 kts 265°
2026-05-07 18:46 5.49323 -1.64097 33863 ft 430 kts 265°
2026-05-07 18:47 5.48758 -1.70085 33737 ft 432 kts 265°
2026-05-07 18:47 5.48478 -1.73084 33354 ft 429 kts 265°
2026-05-07 18:47 5.48207 -1.76051 32977 ft 425 kts 265°
2026-05-07 18:47 5.47939 -1.79001 32588 ft 422 kts 265°
2026-05-07 18:48 5.47675 -1.81925 32207 ft 420 kts 265°
2026-05-07 18:48 5.47412 -1.84835 31826 ft 417 kts 265°
2026-05-07 18:48 5.47149 -1.87726 31454 ft 415 kts 265°
2026-05-07 18:48 5.46890 -1.90572 31082 ft 413 kts 265°
2026-05-07 18:49 5.46627 -1.93469 30703 ft 411 kts 265°
2026-05-07 18:49 5.46369 -1.96291 30322 ft 410 kts 265°
2026-05-07 18:49 5.46110 -1.99133 29933 ft 409 kts 265°
2026-05-07 18:49 5.45851 -2.01974 29506 ft 407 kts 265°
2026-05-07 18:50 5.45593 -2.04796 29100 ft 404 kts 265°
2026-05-07 18:50 5.45337 -2.07593 28694 ft 402 kts 264°
2026-05-07 18:50 5.45083 -2.10376 28303 ft 399 kts 264°
2026-05-07 18:50 5.44829 -2.13145 27913 ft 396 kts 264°
2026-05-07 18:51 5.44578 -2.15892 27528 ft 394 kts 264°
2026-05-07 18:51 5.44328 -2.18620 27149 ft 392 kts 264°
2026-05-07 18:51 5.44079 -2.21339 26774 ft 390 kts 264°
2026-05-07 18:51 5.43831 -2.24038 26386 ft 388 kts 264°
2026-05-07 18:52 5.43584 -2.26734 26010 ft 387 kts 264°
2026-05-07 18:52 5.43337 -2.29423 25631 ft 385 kts 264°
2026-05-07 18:52 5.43091 -2.32104 25237 ft 385 kts 264°
2026-05-07 18:52 5.42849 -2.34740 24862 ft 384 kts 264°
2026-05-07 18:53 5.42604 -2.37408 24476 ft 383 kts 264°
2026-05-07 18:53 5.42359 -2.40071 24103 ft 383 kts 264°
2026-05-07 18:53 5.42114 -2.42733 23732 ft 382 kts 264°
2026-05-07 18:53 5.41870 -2.45385 23302 ft 382 kts 264°
2026-05-07 18:54 5.41625 -2.48042 22894 ft 381 kts 264°
2026-05-07 18:54 5.41382 -2.50681 22506 ft 378 kts 264°
2026-05-07 18:54 5.41141 -2.53302 22128 ft 376 kts 264°
2026-05-07 18:54 5.40902 -2.55898 21737 ft 369 kts 264°
2026-05-07 18:55 5.40666 -2.58453 21389 ft 366 kts 264°
2026-05-07 18:55 5.40431 -2.60994 21030 ft 364 kts 264°
2026-05-07 18:55 5.40198 -2.63519 20671 ft 363 kts 264°
2026-05-07 18:55 5.39968 -2.66007 20307 ft 362 kts 264°
2026-05-07 18:56 5.39736 -2.68513 19947 ft 360 kts 264°
2026-05-07 18:56 5.39505 -2.71017 19573 ft 360 kts 264°
2026-05-07 18:56 5.39274 -2.73512 19219 ft 358 kts 264°
2026-05-07 18:56 5.39046 -2.76006 18834 ft 358 kts 265°
2026-05-07 18:57 5.38843 -2.78511 18374 ft 361 kts 265°
2026-05-07 18:57 5.38655 -2.81026 17956 ft 361 kts 265°
2026-05-07 18:57 5.38472 -2.83532 17554 ft 359 kts 265°
2026-05-07 18:57 5.38289 -2.86025 17189 ft 357 kts 265°
2026-05-07 18:58 5.38106 -2.88503 16827 ft 355 kts 265°
2026-05-07 18:58 5.37923 -2.90966 16460 ft 351 kts 265°
2026-05-07 18:58 5.37742 -2.93379 16098 ft 342 kts 265°
2026-05-07 18:58 5.37565 -2.95738 15761 ft 337 kts 265°
2026-05-07 18:59 5.37388 -2.98080 15413 ft 337 kts 265°
2026-05-07 18:59 5.37212 -3.00396 15076 ft 337 kts 265°
2026-05-07 18:59 5.37035 -3.02741 14722 ft 337 kts 265°
2026-05-07 18:59 5.36857 -3.05091 14371 ft 337 kts 265°
2026-05-07 19:00 5.36679 -3.07435 14020 ft 337 kts 265°
2026-05-07 19:00 5.36501 -3.09788 13667 ft 338 kts 264°
2026-05-07 19:00 5.36322 -3.12144 13284 ft 338 kts 264°
2026-05-07 19:00 5.36143 -3.14492 12934 ft 336 kts 265°
2026-05-07 19:01 5.35966 -3.16829 12592 ft 335 kts 265°
2026-05-07 19:01 5.35791 -3.19131 12255 ft 334 kts 265°
2026-05-07 19:01 5.35615 -3.21451 11900 ft 333 kts 265°
2026-05-07 19:01 5.35438 -3.23771 11556 ft 333 kts 265°
2026-05-07 19:02 5.35262 -3.26084 11205 ft 332 kts 265°
2026-05-07 19:02 5.35087 -3.28390 10862 ft 331 kts 265°
2026-05-07 19:02 5.34911 -3.30697 10516 ft 331 kts 265°
2026-05-07 19:02 5.34735 -3.33003 10167 ft 331 kts 265°
2026-05-07 19:03 5.34561 -3.35294 9956 ft 325 kts 265°
2026-05-07 19:03 5.34390 -3.37536 9813 ft 317 kts 264°
2026-05-07 19:03 5.34220 -3.39756 9344 ft 322 kts 265°
2026-05-07 19:03 5.34050 -3.41987 9001 ft 320 kts 265°
2026-05-07 19:04 5.33880 -3.44212 8687 ft 319 kts 265°
2026-05-07 19:04 5.33712 -3.46410 8352 ft 312 kts 265°
2026-05-07 19:04 5.33549 -3.48547 8036 ft 302 kts 265°
2026-05-07 19:04 5.33393 -3.50590 7738 ft 293 kts 265°
2026-05-07 19:05 5.33554 -3.52599 7440 ft 288 kts 287°
2026-05-07 19:05 5.34215 -3.54478 7190 ft 285 kts 290°
2026-05-07 19:05 5.34911 -3.56338 6912 ft 284 kts 291°
2026-05-07 19:05 5.35606 -3.58190 6631 ft 283 kts 290°
2026-05-07 19:06 5.36294 -3.60033 6352 ft 281 kts 290°
2026-05-07 19:06 5.37650 -3.63705 5743 ft 279 kts 290°
2026-05-07 19:06 5.38320 -3.65526 5468 ft 277 kts 290°
2026-05-07 19:07 5.38975 -3.67311 5195 ft 274 kts 290°
2026-05-07 19:07 5.39631 -3.69102 4902 ft 266 kts 290°
2026-05-07 19:07 5.40260 -3.70819 4647 ft 264 kts 290°
2026-05-07 19:07 5.40892 -3.72547 4373 ft 263 kts 290°
2026-05-07 19:08 5.41519 -3.74263 4153 ft 259 kts 290°
2026-05-07 19:08 5.42130 -3.75933 4033 ft 251 kts 289°
2026-05-07 19:08 5.42723 -3.77554 3915 ft 243 kts 289°
2026-05-07 19:08 5.43296 -3.79122 3812 ft 235 kts 289°
2026-05-07 19:09 5.43851 -3.80640 3710 ft 228 kts 289°
2026-05-07 19:09 5.44381 -3.82090 3599 ft 221 kts 289°
2026-05-07 19:09 5.44694 -3.83574 3522 ft 211 kts 263°
2026-05-07 19:09 5.44137 -3.84901 3310 ft 213 kts 225°
2026-05-07 19:10 5.42897 -3.85628 3180 ft 203 kts 202°
2026-05-07 19:10 5.41609 -3.86170 2940 ft 198 kts 204°
2026-05-07 19:10 5.40351 -3.86696 2689 ft 194 kts 204°
2026-05-07 19:10 5.39120 -3.87206 2446 ft 188 kts 203°
2026-05-07 19:11 5.37936 -3.87695 2231 ft 182 kts 203°
2026-05-07 19:11 5.36792 -3.88168 1973 ft 172 kts 202°
2026-05-07 19:11 5.35722 -3.88611 1772 ft 159 kts 203°
2026-05-07 19:11 5.34748 -3.89015 1589 ft 148 kts 203°
2026-05-07 19:12 5.33777 -3.89416 1373 ft 149 kts 202°
2026-05-07 19:12 5.32839 -3.89805 1185 ft 144 kts 203°
2026-05-07 19:12 5.31911 -3.90190 1009 ft 146 kts 203°
2026-05-07 19:12 5.30972 -3.90577 817 ft 145 kts 204°
2026-05-07 19:13 5.30038 -3.90966 643 ft 146 kts 202°
2026-05-07 19:13 5.29103 -3.91352 427 ft 144 kts 204°
2026-05-07 19:13 5.28174 -3.91737 207 ft 144 kts 204°
2026-05-07 19:13 5.27263 -3.92117 70 ft 141 kts 204°
2026-05-07 19:14 5.26404 -3.92473 33 ft 120 kts 203°
2026-05-07 19:14 5.25980 -3.92648 36 ft 79 kts 202°
2026-05-07 19:14 5.25671 -3.92777 35 ft 18 kts 200°
2026-05-07 19:14 5.25560 -3.92815 35 ft 23 kts 200°
2026-05-07 19:15 5.25474 -3.92870 35 ft 19 kts 244°
2026-05-07 19:15 5.25481 -3.92942 34 ft 0 kts 294°
2026-05-07 19:17 5.25509 -3.93013 35 ft 15 kts 277°
2026-05-07 19:17 5.25497 -3.93044 33 ft 3 kts 212°
2026-05-07 19:17 5.25447 -3.93056 34 ft 11 kts 193°
2026-05-07 19:18 5.25379 -3.93079 35 ft 0 kts 200°
2026-05-07 19:18 5.25358 -3.93087 34 ft 6 kts 200°
2026-05-07 19:18 5.25302 -3.93109 35 ft 6 kts 206°
2026-05-07 19:18 5.25297 -3.93124 35 ft 4 kts 264°
2026-05-07 19:19 5.25303 -3.93134 35 ft 1 kts 314°
2026-05-07 19:19 5.25306 -3.93138 35 ft 1 kts 301°
2026-05-07 19:19 5.25308 -3.93145 35 ft 1 kts 286°
2026-05-07 19:19 5.25310 -3.93155 35 ft 3 kts 281°
2026-05-07 19:20 5.25319 -3.93174 34 ft 3 kts 311°
2026-05-07 19:20 5.25333 -3.93186 35 ft 2 kts 323°
2026-05-07 19:20 5.25344 -3.93194 35 ft 1 kts 325°
2026-05-07 19:20 5.25348 -3.93196 35 ft 0 kts 325°